Regional Weather Roundup
Issued by NWS Sioux Falls, SD

Home | Current Version | Previous Version | Graphics & Text | Print | Product List | Glossary On
Versions: 1 2 3 4 5 6 7 8 9 10 11 12 13 14 15 16 17 18 19 20 21 22 23 24 25 26 27 28 29 30 31 32 33 34 35 36 37 38 39 40 41 42 43 44 45 46 47 48 49 50
000
ASUS43 KFSD 021402
RWRFSD

WEATHER ROUNDUP FOR SE SOUTH DAKOTA/SW MINNESOTA/NW IOWA
NATIONAL WEATHER SERVICE SIOUX FALLS SD
800 AM CST MON MAR 02 2015

NOTE: "FAIR" INDICATES FEW OR NO CLOUDS BELOW 12,000 FEET WITH NO
SIGNIFICANT WEATHER AND OR OBSTRUCTIONS TO VISIBILITY.


SDZ038>040-050-052>070-021500-
SOUTHEAST SOUTH DAKOTA

CITY           SKY/WX    TMP DP  RH WIND       PRES   REMARKS
CHAMBERLAIN    NOT AVBL
HURON          PTCLDY     8   6  92 SE8       30.36F WCI  -4
MADISON        FAIR       3   3 100 S7        30.38S WCI  -9
MITCHELL       PTCLDY    15  11  83 SE13      30.39F WCI   1
SIOUX FALLS    MOCLDY    10   6  84 CALM      30.42R
WINNER         CLOUDY    25   7  46 S17G28    30.23F WCI  12
YANKTON        MOCLDY    14  12  92 E5        30.44S WCI   6
$$

MNZ071-072-080-081-089-090-097-098-021500-
SOUTHWEST MINNESOTA

CITY           SKY/WX    TMP DP  RH WIND       PRES   REMARKS
FAIRMONT       PTSUNNY    5   1  85 SW3       30.44F
JACKSON        MOSUNNY    3   0  85 SW5       30.44R WCI  -6
LUVERNE        MOCLDY     5   1  85 CALM      30.44R
MARSHALL       MOCLDY     7   1  78 SW5       30.45R WCI  -2
MONTEVIDEO     MOCLDY     9   7  92 W6        30.45R WCI  -1
PIPESTONE      PTCLDY     7   5  92 CALM      30.39R
REDWOOD FALLS  PTSUNNY    4   1  88 S6        30.45R WCI  -7
TRACY          MOCLDY    10   5  80 SW7       30.44R WCI  -1
WINDOM         MOSUNNY    1  -2  85 CALM      30.44R
WORTHINGTON    PTSUNNY   10   3  72 S5        30.44R WCI   2
$$

IAZ001>003-012>014-020>022-031-032-NEZ013-014-SDZ071-021500-
NORTHWEST IOWA

CITY           SKY/WX    TMP DP  RH WIND       PRES   REMARKS
DENISON        MOSUNNY   12  10  92 CALM      30.46R
ESTHERVILLE    MOSUNNY    4   2  91 SW3       30.45S
LE MARS        CLOUDY     9   7  92 CALM      30.48R
ORANGE CITY    PTCLDY    14  10  85 CALM      30.44R
SHELDON        MOSUNNY    7   5  92 SE3       30.43S
SIOUX CITY     CLOUDY    16  11  80 E5        30.47R WCI   9
SPENCER        MOSUNNY    6   0  76 CALM      30.46S
STORM LAKE     MOSUNNY   12   9  85 SE6       30.46R WCI   3
$$

ABBREVIATIONS USED IN REMARKS
   TC - TEMPERATURE IN CELSIUS
  WCI - WIND CHILL INDEX
   HX - HEAT INDEX
  VSB - VISIBILITY




USA.gov is the U.S. government's official web portal to all federal, state and local government web resources and services.